Portada
METAR-TAF:

METAR-TAF

Aeroports :

Parsons, Tennessee, Estats Units d'Amèrica

latitud: 35-39-23N, longitud: 088-11-43W, altitud: 149 m

Observació

L'informe es va fer fa 20 minuts, a les 23:35 UTC
Vent calma
Temperatura 24°C
Humitat 74%
Pressió 1017 hPa
Visibilitat: 16.1 km
Escasses núvols a una alçada de 4300 ft
Núvols disperses a una alçada de 4900 ft
Núvols disperses a una alçada de 6000 ft

METAR: KPVE 292335Z AUTO 00000KT 10SM FEW043 SCT049 SCT060 24/19 A3003 RMK A01

Hora: 18:55 (23:55 UTC)


TAF: manca

Observacions i pronòstics meteorològics de més de 4000 aeroports (METAR i TAF).

Les estacions disponibles són els punts grocs i vermells al mapa.

Posi el ratolí al punt desitjat per veure el nom de l'estació.

Feu clic per veure les observacions i els pronòstics meteorològics.

Per canviar el mapa: feu clic els botons verds amb una creu de color negre per apropar; al botó verd amb un guió per allunyar la imatge; o en les fletxes verdes per a mapes adjacents.


METAR-TAF: